星链-34076 (STARLINK-34076)

导读 | 豆包AI

STARLINK-34076是美国于2025年5月10日发射的星链卫星,隶属于SpaceX星链星座项目。星链计划旨在搭建全球卫星互联网通信网络,为偏远地区等提供网络接入服务,该卫星是星链低轨星座部署过程中的一员,助力扩展星座覆盖范围与通信服务能力。

基本信息
目录编号:
63915
目录名称:
STARLINK-34076
国际标识:
2025-095AB
轨道中心:
EARTH
卫星名称:
星链-34076
卫星全名:
星链-34076 (STARLINK-34076)
卫星状态:
在轨 (已飞行308 天)
发射日期:
2025-05-10 UTC
国别 :
美国 (US)
星等 :
--
轨道信息
数据来源 国际轨道数据
星历时间: 2026-03-14T23:01:46+0800
5小时前
查看轨道信息
半长轴: 6861.108km
偏心率: 0.0001037
轨道倾角: 42.999°
近地点辐角 278.943°
升交点赤经 148.258°
平近点角 81.131°
近地点: 482.259km
远地点: 483.683km
周期: 94.265分钟
每日圈数: 15.276062
详细信息
固有亮度:
5
最大亮度:
2.5
卫星平台:
Starlink V1.0
覆盖范围:
全球
运营商:
太空探索技术公司
运营商所在国:
美国
制造商(研发单位):
太空探索技术公司
制造商所在国:
美国
使用方式:
暂无
卫星简介
Starlink 计划是 SpaceX 推出的全球卫星互联网项目,通过发射低轨道卫星,为全球尤其是偏远地区提供高速、低延迟的互联网服务。自 2019 年起,Starlink 已部署数千颗卫星,旨在缩小全球数字鸿沟,推动互联网普及。该项目还为军事、航空等行业提供通信支持,带来广泛经济效益。
2D轨道图
3D轨道图
轨道高度分析图
轨道倾角分析图
轨道综合分析图
查看轨道综合分析图